Date,TemperatureHighF,TemperatureAvgF,TemperatureLowF,DewpointHighF,DewpointAvgF,DewpointLowF,HumidityHigh,HumidityAvg,HumidityLow,PressureMaxIn,PressureMinIn,WindSpeedMaxMPH,WindSpeedAvgMPH,GustSpeedMaxMPH,PrecipitationSumIn
2013-2-1,63.4,54.7,46.1,50.7,41.9,34.1,77,62,47,30.34,30.20,16,3,16,0.00
2013-2-2,68.1,57.7,45.3,56.9,49.4,39.4,87,74,60,30.30,30.14,12,2,12,0.00
2013-2-3,67.1,58.7,50.2,53.9,49.0,40.3,89,71,45,30.21,30.07,15,1,15,0.00
2013-2-4,68.5,56.9,45.1,53.4,46.6,40.0,88,69,52,30.15,30.03,11,2,11,0.00
2013-2-5,74.3,61.0,48.5,57.9,49.8,39.6,81,67,47,30.12,30.02,12,2,12,0.00
2013-2-6,77.0,66.5,56.6,67.7,60.4,52.7,95,81,69,30.14,30.03,15,2,15,0.00
2013-2-7,78.5,71.3,61.2,68.2,63.9,57.3,93,78,66,30.11,29.93,22,4,22,0.01
2013-2-8,78.5,69.4,63.6,65.9,63.0,59.6,92,81,59,30.09,29.89,14,2,14,0.00
2013-2-9,71.4,66.1,57.9,63.2,60.1,55.3,94,81,71,30.22,30.06,17,3,17,0.01
2013-2-10,75.5,70.5,66.8,62.3,59.9,57.3,77,69,59,30.31,30.19,21,5,21,0.00
2013-2-11,79.3,72.3,64.8,66.8,63.7,55.4,89,75,60,30.25,30.11,19,4,19,0.00
2013-2-12,84.0,73.1,62.0,70.0,65.5,58.1,95,78,54,30.14,29.97,16,3,16,0.00
2013-2-13,85.8,75.6,66.7,72.5,67.7,59.9,96,78,53,30.01,29.86,22,5,22,0.00
2013-2-14,74.2,65.5,60.5,67.9,61.6,58.8,97,87,76,30.07,29.92,13,1,13,1.21
2013-2-15,65.8,61.8,58.8,61.7,59.7,57.5,100,93,85,30.08,29.96,11,1,11,0.09
2013-2-16,69.4,61.3,50.1,60.2,51.1,35.8,97,71,44,30.10,29.89,24,4,24,0.00
2013-2-17,51.8,46.6,39.5,39.6,27.8,20.8,68,49,36,30.36,30.09,26,4,26,0.00
2013-2-18,65.8,54.2,40.2,52.9,41.3,26.0,79,62,53,30.37,30.24,18,3,18,0.00
2013-2-19,78.3,65.9,51.4,62.6,56.2,46.0,96,72,51,30.25,30.08,18,2,20,0.01
2013-2-20,70.8,65.1,57.4,64.7,60.2,53.1,95,84,76,30.15,30.05,13,2,13,0.00
2013-2-21,78.6,70.4,61.8,68.6,64.9,56.4,99,83,51,30.14,30.03,15,2,15,0.00
2013-2-22,80.0,72.8,63.5,73.0,68.3,59.9,97,86,76,30.12,30.03,20,3,21,0.00
2013-2-23,86.5,76.5,67.6,72.7,68.8,64.2,95,78,56,30.06,29.90,24,3,24,0.01
2013-2-24,85.5,73.0,67.8,71.3,68.4,65.7,95,86,55,30.01,29.91,19,3,19,0.08
2013-2-25,85.0,76.0,69.5,73.5,70.3,66.8,97,84,56,29.94,29.80,19,3,19,0.00
2013-2-26,83.5,76.6,71.3,73.2,70.0,65.5,92,81,63,29.89,29.78,30,6,30,0.00
2013-2-27,75.0,68.1,62.2,65.6,61.7,55.0,91,80,63,29.99,29.87,12,2,12,0.01
2013-2-28,74.4,63.3,53.3,56.5,51.5,46.6,88,67,47,30.03,29.89,14,2,14,0.00